TimeCST,TemperatureF,Dew PointF,Humidity,Sea Level PressureIn,VisibilityMPH,Wind Direction,Wind SpeedMPH,Gust SpeedMPH,PrecipitationIn,Events,Conditions,WindDirDegrees,DateUTC
12:53 AM,46.0,44.1,93,30.08,5.0,Calm,Calm,-,N/A,,Overcast,0,2012-11-20 06:53:00
1:53 AM,46.0,44.1,93,30.08,4.0,Calm,Calm,-,N/A,,Overcast,0,2012-11-20 07:53:00
2:53 AM,46.0,44.1,93,30.09,4.0,Calm,Calm,-,N/A,,Overcast,0,2012-11-20 08:53:00
3:53 AM,46.0,44.1,93,30.09,4.0,Calm,Calm,-,N/A,,Overcast,0,2012-11-20 09:53:00
4:53 AM,46.0,44.1,93,30.10,4.0,Calm,Calm,-,N/A,,Overcast,0,2012-11-20 10:53:00
5:53 AM,44.6,42.8,93,30.09,2.5,North,3.5,-,N/A,,Overcast,360,2012-11-20 11:53:00
6:06 AM,44.6,42.8,93,30.09,3.0,NE,3.5,-,N/A,,Overcast,40,2012-11-20 12:06:00
6:39 AM,42.8,42.8,100,30.09,2.5,NNE,6.9,-,N/A,,Mostly Cloudy,20,2012-11-20 12:39:00
6:53 AM,42.1,41.0,96,30.11,2.0,NNE,8.1,-,N/A,,Scattered Clouds,30,2012-11-20 12:53:00
7:04 AM,42.8,42.8,100,30.10,1.2,NNE,9.2,-,N/A,,Clear,20,2012-11-20 13:04:00
7:11 AM,42.8,42.8,100,30.10,1.2,North,10.4,-,N/A,,Scattered Clouds,10,2012-11-20 13:11:00
7:20 AM,44.6,44.6,100,30.10,1.2,NNE,11.5,-,N/A,,Mostly Cloudy,20,2012-11-20 13:20:00
7:31 AM,44.6,44.6,100,30.11,0.5,North,10.4,-,N/A,Fog,Fog,10,2012-11-20 13:31:00
7:38 AM,44.6,44.6,100,30.11,0.2,NNE,11.5,-,N/A,Fog,Fog,20,2012-11-20 13:38:00
7:46 AM,44.6,44.6,100,30.12,0.2,NNE,11.5,-,N/A,Fog,Fog,20,2012-11-20 13:46:00
7:53 AM,45.0,44.1,97,30.14,0.2,NNE,11.5,-,N/A,Fog,Fog,20,2012-11-20 13:53:00
8:53 AM,45.0,45.0,100,30.15,0.2,North,8.1,-,N/A,Fog,Fog,10,2012-11-20 14:53:00
9:53 AM,45.0,45.0,100,30.16,0.2,NNE,4.6,-,N/A,Fog,Fog,30,2012-11-20 15:53:00
10:53 AM,46.0,45.0,96,30.15,0.2,NNE,3.5,-,N/A,Fog,Fog,30,2012-11-20 16:53:00
11:04 AM,44.6,44.6,100,30.13,0.2,Calm,Calm,-,N/A,Fog,Fog,0,2012-11-20 17:04:00
11:12 AM,46.4,46.4,100,30.13,0.2,Calm,Calm,-,N/A,Fog,Fog,0,2012-11-20 17:12:00
11:20 AM,46.4,46.4,100,30.14,0.8,NNW,4.6,-,N/A,,Overcast,330,2012-11-20 17:20:00
11:29 AM,46.4,44.6,93,30.14,1.0,NNW,5.8,-,N/A,,Overcast,330,2012-11-20 17:29:00
11:37 AM,46.4,44.6,93,30.13,0.8,NNW,4.6,-,N/A,,Overcast,340,2012-11-20 17:37:00
11:53 AM,46.0,45.0,96,30.15,0.5,NNE,3.5,-,N/A,Fog,Fog,20,2012-11-20 17:53:00
12:53 PM,46.9,45.0,93,30.14,1.0,Calm,Calm,-,N/A,,Overcast,0,2012-11-20 18:53:00
1:22 PM,48.2,46.4,93,30.11,2.0,NE,3.5,-,N/A,,Scattered Clouds,40,2012-11-20 19:22:00
1:36 PM,50.0,44.6,82,30.11,3.0,NE,4.6,-,N/A,,Haze,50,2012-11-20 19:36:00
1:53 PM,50.0,45.0,83,30.13,4.0,ENE,3.5,-,N/A,,Haze,70,2012-11-20 19:53:00
2:53 PM,51.1,45.0,80,30.14,4.0,North,6.9,-,N/A,,Haze,10,2012-11-20 20:53:00
3:53 PM,48.0,44.1,86,30.15,4.0,NNE,4.6,-,N/A,,Clear,30,2012-11-20 21:53:00
4:23 PM,44.6,42.8,93,30.14,2.5,NNE,5.8,-,N/A,,Clear,30,2012-11-20 22:23:00
4:43 PM,42.8,42.8,100,30.14,1.8,NE,4.6,-,N/A,,Scattered Clouds,50,2012-11-20 22:43:00
4:53 PM,44.1,43.0,96,30.16,1.0,NE,5.8,-,N/A,,Mist,50,2012-11-20 22:53:00
5:00 PM,44.6,44.6,100,30.14,0.5,ENE,3.5,-,N/A,Fog,Fog,60,2012-11-20 23:00:00
5:36 PM,44.6,44.6,100,30.16,0.2,NNE,5.8,-,N/A,Fog,Fog,20,2012-11-20 23:36:00
5:53 PM,44.1,44.1,100,30.19,0.2,North,5.8,-,N/A,Fog,Fog,10,2012-11-20 23:53:00
6:53 PM,44.1,44.1,100,30.19,0.2,Calm,Calm,-,N/A,Fog,Fog,0,2012-11-21 00:53:00
7:53 PM,43.0,42.1,97,30.19,0.2,Calm,Calm,-,N/A,Fog,Fog,0,2012-11-21 01:53:00
8:53 PM,39.9,39.9,100,30.20,0.2,Calm,Calm,-,N/A,Fog,Fog,0,2012-11-21 02:53:00
9:53 PM,39.0,39.0,100,30.19,0.2,SW,3.5,-,N/A,Fog,Fog,220,2012-11-21 03:53:00
10:53 PM,37.0,37.0,100,30.20,0.2,WSW,3.5,-,N/A,Fog,Fog,250,2012-11-21 04:53:00
11:53 PM,36.0,36.0,100,30.21,0.2,WSW,4.6,-,N/A,Fog,Fog,250,2012-11-21 05:53:00